Weather History for Merrill, WI

Change the Weather History Date:

Tuesday, October 29, 2013

  Actual Average Record
Temperature  
Mean Temperature 28 °F -  
Max Temperature 37 °F 50 °F 75 °F (1937)
Min Temperature 18 °F 28 °F 9 °F (1905)
Degree Days  
Heating Degree Days 38    
Moisture  
Dew Point 27 °F    
Average Humidity 84    
Maximum Humidity 98    
Minimum Humidity 70    
Precipitation  
Precipitation 0.00 in - - ()
Sea Level Pressure  
Sea Level Pressure 30.31 in    
Wind  
Wind Speed 2 mph (ESE)    
Max Wind Speed 10 mph    
Max Gust Speed -    
Visibility 9 miles    
Events Rain    
Averages and records for this station are not official NWS values.
T = Trace of Precipitation, MM = Missing Value Source: NWS Daily Summary

Daily Weather History Graph

Daily Weather History Graph

Search for Another Location

Airport:

Trip Planner

Search our weather history database for the weather conditions in past years. The results will help you decide how hot, cold, wet, or windy it might be!

Date:

Astronomy

Oct. 29, 2013 Rise Set
Actual Time 7:33 AM CDT 5:50 PM CDT
Civil Twilight 7:03 AM CDT 6:20 PM CDT
Nautical Twilight 6:28 AM CDT 6:55 PM CDT
Astronomical Twilight 5:54 AM CDT 7:29 PM CDT
Moon 2:10 AM CDT (10/29) 3:16 PM CDT (10/29)
Length of Visible Light 11h 17m
Length of Day
10h 16m
Waning Crescent, 25% of the Moon is Illuminated
Oct 29
Waning Crescent
Nov 3
New
Nov 9
First Quarter
Nov 17
Full
Nov 25
Last Quarter

Hourly Weather History & Observations

Time (CDT) Temp. Windchill Dew Point Humidity Pressure Visibility Wind Dir Wind Speed Gust Speed Precip Events Conditions
12:15 AM 19.9 °F 14.9 °F 17.2 °F 89% 30.42 in 10.0 mi ENE 3.5 mph - N/A   Clear
12:35 AM 22.6 °F - 18.1 °F 83% 30.43 in 10.0 mi Calm Calm - N/A   Clear
12:55 AM 22.8 °F - 18.1 °F 82% 30.43 in 10.0 mi Calm Calm - N/A   Clear
1:15 AM 22.8 °F - 17.8 °F 81% 30.43 in 10.0 mi Calm Calm - N/A   Clear
1:35 AM 22.8 °F - 17.6 °F 80% 30.43 in 10.0 mi Calm Calm - N/A   Clear
1:55 AM 21.4 °F - 16.5 °F 82% 30.44 in 10.0 mi Calm Calm - N/A   Clear
2:15 AM 22.1 °F - 17.6 °F 83% 30.44 in 10.0 mi Calm Calm - N/A   Clear
2:35 AM 20.3 °F - 16.9 °F 87% 30.44 in 10.0 mi Calm Calm - N/A   Clear
2:55 AM 18.9 °F - 16.2 °F 89% 30.43 in 10.0 mi Calm Calm - N/A   Clear
3:15 AM 19.8 °F - 17.2 °F 90% 30.43 in 10.0 mi Calm Calm - N/A   Clear
3:35 AM 19.8 °F - 17.4 °F 91% 30.42 in 10.0 mi Calm Calm - N/A   Clear
3:55 AM 21.0 °F - 18.0 °F 88% 30.42 in 10.0 mi Calm Calm - N/A   Clear
4:15 AM 22.1 °F - 18.5 °F 86% 30.41 in 10.0 mi Calm Calm - N/A   Clear
4:35 AM 21.7 °F 17.0 °F 18.9 °F 89% 30.41 in 10.0 mi NE 3.5 mph - N/A   Clear
4:55 AM 22.3 °F - 19.4 °F 89% 30.42 in 10.0 mi Calm Calm - N/A   Clear
5:15 AM 22.6 °F - 20.1 °F 90% 30.41 in 10.0 mi Calm Calm - N/A   Clear
5:35 AM 23.2 °F - 20.8 °F 91% 30.42 in 10.0 mi Calm Calm - N/A   Clear
5:55 AM 24.3 °F - 21.6 °F 89% 30.41 in 10.0 mi Calm Calm - N/A   Mostly Cloudy
6:15 AM 24.8 °F - 21.7 °F 88% 30.41 in 10.0 mi Calm Calm - N/A   Mostly Cloudy
6:35 AM 24.8 °F - 22.5 °F 91% 30.40 in 10.0 mi Calm Calm - N/A   Mostly Cloudy
6:55 AM 25.2 °F - 22.8 °F 91% 30.38 in 10.0 mi Calm Calm - N/A   Mostly Cloudy
7:15 AM 25.7 °F - 23.0 °F 89% 30.37 in 10.0 mi Calm Calm - N/A   Overcast
7:35 AM 26.1 °F - 23.5 °F 90% 30.37 in 10.0 mi Calm Calm - N/A   Overcast
7:55 AM 27.3 °F - 23.5 °F 86% 30.38 in 10.0 mi Calm Calm - N/A   Overcast
8:15 AM 28.4 °F - 24.3 °F 84% 30.38 in 10.0 mi Calm Calm - N/A   Overcast
8:35 AM 28.9 °F 25.2 °F 24.4 °F 83% 30.37 in 10.0 mi East 3.5 mph - N/A   Overcast
8:55 AM 29.7 °F 26.1 °F 25.0 °F 83% 30.38 in 10.0 mi East 3.5 mph - N/A   Overcast
9:35 AM 30.7 °F 26.0 °F 25.3 °F 80% 30.37 in 10.0 mi ESE 4.6 mph - N/A   Overcast
9:55 AM 31.5 °F 28.1 °F 25.7 °F 79% 30.37 in 10.0 mi East 3.5 mph - N/A   Overcast
10:15 AM 32.0 °F 27.5 °F 25.5 °F 77% 30.37 in 10.0 mi ESE 4.6 mph - N/A   Overcast
10:35 AM 33.1 °F 28.7 °F 25.7 °F 74% 30.37 in 10.0 mi ESE 4.6 mph - N/A   Overcast
10:55 AM 33.4 °F 27.3 °F 25.2 °F 72% 30.35 in 10.0 mi ESE 6.9 mph - N/A   Overcast
11:15 AM 33.8 °F 28.6 °F 25.5 °F 72% 30.34 in 10.0 mi East 5.8 mph - N/A   Overcast
11:35 AM 35.2 °F 28.1 °F 26.4 °F 70% 30.34 in 10.0 mi ESE 9.2 mph - N/A   Overcast
11:55 AM 35.4 °F 29.0 °F 27.0 °F 71% 30.34 in 10.0 mi ESE 8.1 mph - N/A   Overcast
12:15 PM 36.0 °F 30.3 °F 27.7 °F 72% 30.33 in 10.0 mi ESE 6.9 mph - N/A   Overcast
12:35 PM 36.5 °F 31.0 °F 28.0 °F 71% 30.32 in 10.0 mi ESE 6.9 mph - N/A   Overcast
12:55 PM 36.5 °F 31.8 °F 28.4 °F 72% 30.32 in 10.0 mi SE 5.8 mph - N/A   Overcast
1:15 PM 36.5 °F 32.7 °F 28.9 °F 74% 30.31 in 10.0 mi ESE 4.6 mph - N/A   Overcast
1:35 PM 36.5 °F 32.7 °F 29.1 °F 75% 30.30 in 10.0 mi ESE 4.6 mph - N/A   Overcast
1:55 PM 36.9 °F 31.4 °F 29.8 °F 76% 30.29 in 10.0 mi SE 6.9 mph - N/A   Overcast
2:15 PM 36.9 °F 33.1 °F 30.0 °F 76% 30.27 in 10.0 mi East 4.6 mph - N/A   Overcast
2:35 PM 36.9 °F 33.1 °F 30.9 °F 79% 30.27 in 10.0 mi East 4.6 mph - N/A Rain Light Rain
2:55 PM 37.0 °F 33.3 °F 30.7 °F 78% 30.25 in 10.0 mi East 4.6 mph - N/A   Overcast
3:15 PM 37.4 °F 31.4 °F 30.4 °F 76% 30.24 in 10.0 mi East 8.1 mph - N/A   Overcast
3:35 PM 37.4 °F 33.8 °F 30.6 °F 76% 30.24 in 10.0 mi East 4.6 mph - N/A   Overcast
3:55 PM 37.2 °F 33.6 °F 30.6 °F 77% 30.24 in 10.0 mi East 4.6 mph - N/A   Overcast
4:15 PM 37.4 °F 33.8 °F 30.2 °F 75% 30.24 in 10.0 mi East 4.6 mph - N/A   Overcast
4:35 PM 37.2 °F 31.2 °F 30.9 °F 78% 30.24 in 10.0 mi East 8.1 mph - N/A   Overcast
4:55 PM 36.7 °F 32.0 °F 30.7 °F 79% 30.23 in 10.0 mi ESE 5.8 mph - N/A   Overcast
5:15 PM 36.5 °F 31.0 °F 31.1 °F 81% 30.22 in 10.0 mi East 6.9 mph - N/A   Overcast
5:35 PM 36.3 °F - 31.1 °F 81% 30.22 in 10.0 mi Calm Calm - N/A   Overcast
5:55 PM 36.0 °F 32.1 °F 31.1 °F 82% 30.21 in 10.0 mi East 4.6 mph - N/A   Overcast
6:15 PM 36.0 °F 32.1 °F 31.5 °F 84% 30.21 in 10.0 mi East 4.6 mph - N/A   Overcast
6:35 PM 36.0 °F 31.1 °F 32.0 °F 86% 30.21 in 10.0 mi ESE 5.8 mph - N/A   Overcast
6:55 PM 35.8 °F 28.3 °F 32.5 °F 88% 30.19 in 10.0 mi SE 10.4 mph - N/A   Light Drizzle
7:15 PM 35.6 °F 30.7 °F 33.1 °F 91% 30.19 in 10.0 mi SE 5.8 mph - N/A   Overcast
7:35 PM 35.6 °F 29.9 °F 32.9 °F 90% 30.19 in 10.0 mi ESE 6.9 mph - N/A   Overcast
7:55 PM 35.6 °F 30.7 °F 32.9 °F 90% 30.18 in 10.0 mi SE 5.8 mph - N/A   Overcast
8:15 PM 35.8 °F 31.9 °F 33.1 °F 90% 30.17 in 10.0 mi SSE 4.6 mph - N/A   Overcast
8:35 PM 36.0 °F - 32.9 °F 89% 30.17 in 10.0 mi Calm Calm - N/A   Overcast
8:55 PM 36.0 °F - 33.3 °F 90% 30.17 in 10.0 mi Calm Calm - N/A Rain Light Rain
9:15 PM 36.0 °F - 33.8 °F 92% 30.17 in 7.0 mi Calm Calm - N/A Rain Light Rain
9:35 PM 36.0 °F - 34.7 °F 95% 30.17 in 4.0 mi Calm Calm - N/A Rain Light Rain
9:55 PM 36.0 °F - 34.9 °F 96% 30.17 in 4.0 mi Calm Calm - N/A Rain Rain
10:15 PM 36.1 °F 33.5 °F 35.6 °F 98% 30.17 in 7.0 mi SE 3.5 mph - N/A   Overcast
10:35 PM 36.5 °F 32.7 °F 35.8 °F 97% 30.16 in 7.0 mi SE 4.6 mph - N/A   Overcast
10:55 PM 36.5 °F 32.7 °F 35.8 °F 97% 30.15 in 5.0 mi SSE 4.6 mph - N/A   Overcast
11:15 PM 36.9 °F 34.3 °F 36.1 °F 97% 30.14 in 5.0 mi SE 3.5 mph - N/A   Overcast
11:35 PM 37.4 °F 34.9 °F 36.5 °F 97% 30.13 in 5.0 mi ESE 3.5 mph - N/A   Overcast
11:55 PM 37.4 °F 34.9 °F 36.9 °F 98% 30.13 in 3.0 mi SE 3.5 mph - N/A   Overcast